Showing default

IRIDIUM 175, 43928

Orbit data source: Space-Track

IRIDIUM 175, 43928 is a payload satellite owned by Iridium (US) in LEO that was launched on Fri, 11 Jan 2019 UTC via an FALCON 9 launch vehicle from the Air Force Western Test Range (AFWTR). Payload-class satellites include a variety of spacecraft equipped with specific instruments for various scientific and technological missions. These include communications satellites like Starlink; space stations such as the ISS; scientific satellites like the Hubble; Earth observation satellites from companies like Planet Labs, Umbra, and HawkEye 360; GPS; miniature CubeSats for education and research; and military/defense satellites.

Loading next visibility...
Identifier
43928, 2019-002G
Orbit
LEO
Country
Flag of USUS
Related business
Manufacturer
NGIS SSG Gilbert
Mission
Operational Commercial Communications
Bus & Motor
ELITEBUS, Unknown motor
Mass
860 kg wet, 700 kg dry
Launch date (UTC)
2019-01-11 (7 years ago)
Launch vehicle
FALCON 9
Launch site
Air Force Western Test Range (AFWTR)
Object type
Payload
Rocket body
Debris
Shape & HBR
Trap Box + 2 Pan, 4.8 m
Radar Cross Section
10.154 m², Large (>1 m²)

Expand to show TLE details & history
Last TLE update: 22 hours ago

TLE from 22 hours ago
0 IRIDIUM 175
1 43928U 19002G   25340.80564204  .00001743  00000-0  27253-3 0  9998
2 43928  86.1506  16.7347 0003094  98.9151 261.2416 14.72244994370931
Epoch: 2025-12-06T19:20Z
TLE epoch observation values (Epoch: 2025-12-06T19:20:07.472Z)
Latitude
Longitude
10.87546°
Altitude
657.344 km
Speed
7.529 km/s
True Right ascension
01h 06m 56s
True Declination
0° 00' 00"
Sunlit
Object was in full shadow at epoch
Visualization orbit readout
Latitude
Unknown
Longitude
Unknown
Altitude
Unknown
Speed
Unknown
Apparent Right ascension
Unknown
Apparent Declination
Unknown
Sunlit
N/A
Visualization observer readout
Local Sidereal Time
15:28:11
Azimuth
Unknown
Elevation
Unknown
Doppler factor
Unknown
Orbital elements
Apogee altitude
653.001 km
Perigee altitude
648.652 km
Semi-major axis
7,028.963 km
Eccentricity
0.00031
Inclination
86.1506°
RAAN
16.7347°
Arg. of periapsis
98.9151°
True anomaly
261.20656°
Mean anomaly
261.2416°
Eccentric anomaly
261.22408°
Mean motion
3.68304 °/min
Orbital period
97.75 mins
BSTAR
0.00027253
Loading maneuver chart data...
Computing Atmospheric mass density...
Loading historical data...
Loading historical data...
Loading historical data...
Loading historical data...
Loading historical data...
Loading historical data...
Loading historical data...

Documentation

Showing up to 5 results
|